Orbital Elements at Epoch 2456472.5 (2013-Jun-29.0) TDB
Reference: JPL 56 (heliocentric ecliptic J2000)
Element | Value | Uncertainty (1-sigma) | Units |
e | .5634634373508314 | 6.0836e-08 | |
a | 3.400718930368144 | 4.5201e-08 | au |
q | 1.484538152398867 | 2.0868e-07 | au |
i | 14.6521555400766 | 7.9149e-06 | deg |
node | 112.4028594666749 | 2.1638e-05 | deg |
peri | 308.8921316989288 | 3.234e-05 | deg |
M | 222.9940189115779 | 7.8713e-06 | deg |
tp | 2457344.249208064782 (2015-Nov-17.74920806) | 3.6894e-05 | TDB |
period | 2290.627842741985 6.27 | 4.567e-05 1.25e-07 | d yr |
n | .1571621514776769 | 3.1334e-09 | deg/d |
Q | 5.316899708337421 | 7.0671e-08 | au |
|
| | Orbit Determination Parameters
Additional Information
|